Location: Devore Heights
(34.2372°N, 117.4156°W)
Time: 05:04:49
(UTC+00:00)

S-56A Canister/Altair - Pass Details

Date: 18 September 2024
Orbit: 636 x 2487 km, 38.9° (Epoch: 05 October)

Event Time Altitude Azimuth Distance (km) Brightness Sun altitude
Rises 06:15:25 0° 290° (WNW) 3,918 11.7 -48.6°
Reaches altitude 10° 06:17:45 10° 289° (WNW) 3,157 11.0 -48.8°
Enters shadow 06:19:32 20° 287° (WNW) 2,616 10.4 -49.0°
Maximum altitude 06:25:49 75° 205° (SSW) 1,657 - -49.7°
Drops below altitude 10° 06:38:07 10° 123° (ESE) 4,651 - -50.9°
Sets 06:42:18 0° 122° (ESE) 5,855 - -51.3°
